QPF
0.05 0.04 0.05 0.06 0.08 0.10 0.10 0.08 0.06 0.05 0.06 0.06 0.05 0.04 0.05 0.06 0.06 0.07 0.08 0.08 0.08 0.07 0.07 0.06 0.04 0.04 0.04 0.03 0.04 0.04 0.04 0.04 0.04 0.03 0.03 0.02 0.03 0.04 0.04 0.03 0.04 0.05 0.06
0.07 0.05 0.05 0.05 0.06 0.07 0.07 0.06 0.04 0.04 0.05 0.04 0.04 0.05 0.06 0.06 0.07 0.08 0.08 0.08 0.07 0.06 0.05 0.04 0.03 0.03 0.03 0.03 0.03 0.03 0.04 0.04 0.04 0.05 0.06 0.05 0.04 0.04 0.03 0.03 0.05 0.06 0.06
0.08 0.05 0.06 0.05 0.04 0.04 0.04 0.05 0.05 0.05 0.05 0.03 0.04 0.07 0.07 0.06 0.06 0.07 0.07 0.07 0.06 0.06 0.05 0.03 0.03 0.03 0.04 0.04 0.03 0.03 0.03 0.04 0.03 0.04 0.08 0.09 0.08 0.06 0.05 0.04 0.04 0.05 0.07
0.07 0.06 0.07 0.05 0.05 0.04 0.04 0.05 0.05 0.08 0.07 0.03 0.05 0.10 0.11 0.09 0.06 0.05 0.06 0.06 0.06 0.06 0.05 0.04 0.03 0.03 0.03 0.03 0.03 0.03 0.03 0.04 0.04 0.05 0.05 0.06 0.07 0.06 0.05 0.05 0.04 0.04 0.07
0.04 0.05 0.06 0.05 0.04 0.04 0.03 0.04 0.05 0.04 0.03 0.03 0.03 0.06 0.08 0.07 0.05 0.04 0.04 0.04 0.04 0.05 0.05 0.04 0.04 0.04 0.04 0.04 0.04 0.04 0.03 0.03 0.04 0.05 0.05 0.05 0.05 0.05 0.05 0.05 0.05 0.05 0.07
0.03 0.07 0.09 0.05 0.03 0.02 0.03 0.05 0.05 0.02 0.03 0.03 0.06 0.05 0.04 0.03 0.02 0.02 0.02 0.03 0.02 0.02 0.02 0.03 0.03 0.04 0.06 0.06 0.05 0.04 0.04 0.03 0.03 0.03 0.04 0.05 0.06 0.06 0.06 0.05 0.05 0.05 0.05
0.04 0.07 0.08 0.05 0.03 0.03 0.03 0.03 0.02 0.03 0.02 0.02 0.03 0.03 0.03 0.02 0.01 0.01 0.01 0.01 0.01 0.01 0.01 0.02 0.02 0.02 0.02 0.02 0.02 0.02 0.02 0.02 0.02 0.02 0.03 0.04 0.04 0.04 0.06 0.06 0.06 0.05 0.04
0.03 0.04 0.06 0.05 0.04 0.03 0.03 0.04 0.03 0.01 0.01 0.02 0.02 0.01 0.01 0.01 0.01 0.01 0.01 0.01 0.01 0.01 0.00 0.00 0.00 0.00 0.01 0.01 0.01 0.01 0.01 0.01 0.01 0.01 0.02 0.02 0.02 0.02 0.04 0.05 0.05 0.06 0.04
0.02 0.03 0.04 0.05 0.05 0.05 0.06 0.07 0.05 0.03 0.01 0.01 0.01 0.01 0.01 0.01 0.01 0.01 0.01 0.01 0.01 0.01 0.01 0.01 0.01 0.00 0.01 0.01 0.01 0.01 0.01 0.01 0.01 0.01 0.01 0.01 0.01 0.02 0.02 0.03 0.04 0.05 0.05
0.02 0.03 0.03 0.04 0.05 0.07 0.08 0.06 0.03 0.02 0.02 0.01 0.01 0.01 0.01 0.01 0.01 0.01 0.01 0.01 0.01 0.01 0.01 0.01 0.01 0.00 0.00 0.01 0.01 0.01 0.01 0.01 0.01 0.01 0.01 0.01 0.01 0.01 0.02 0.02 0.03 0.04 0.05
0.02 0.03 0.05 0.05 0.04 0.04 0.08 0.06 0.03 0.03 0.02 0.02 0.02 0.01 0.01 0.01 0.01 0.01 0.01 0.01 0.01 0.01 0.00 0.00 0.00 0.00 0.00 0.01 0.01 0.01 0.01 0.01 0.01 0.01 0.01 0.01 0.02 0.02 0.02 0.02 0.03 0.03 0.04
0.02 0.03 0.06 0.08 0.07 0.05 0.06 0.07 0.03 0.02 0.02 0.02 0.02 0.01 0.01 0.01 0.00 0.00 0.01 0.01 0.00 0.00 0.00 0.00 0.00 0.00 0.00 0.01 0.02 0.02 0.02 0.02 0.02 0.02 0.02 0.02 0.02 0.03 0.02 0.02 0.02 0.03 0.04
0.03 0.04 0.05 0.06 0.06 0.04 0.03 0.03 0.03 0.02 0.02 0.02 0.01 0.01 0.01 0.01 0.01 0.01 0.00 0.00 0.00 0.00 0.00 0.00 0.00 0.01 0.01 0.02 0.02 0.03 0.03 0.03 0.03 0.03 0.02 0.02 0.03 0.03 0.02 0.03 0.03 0.03 0.04
0.02 0.02 0.03 0.04 0.04 0.03 0.03 0.03 0.02 0.02 0.02 0.02 0.01 0.01 0.01 0.01 0.01 0.01 0.00 0.00 0.01 0.01 0.01 0.01 0.01 0.01 0.01 0.01 0.01 0.01 0.03 0.04 0.04 0.03 0.03 0.03 0.03 0.02 0.02 0.03 0.03 0.03 0.04
0.03 0.03 0.03 0.04 0.04 0.03 0.02 0.01 0.01 0.01 0.01 0.01 0.01 0.01 0.01 0.01 0.01 0.01 0.01 0.01 0.01 0.01 0.01 0.01 0.01 0.02 0.01 0.01 0.01 0.02 0.02 0.03 0.03 0.03 0.03 0.03 0.03 0.02 0.02 0.02 0.02 0.03 0.04
0.04 0.04 0.04 0.04 0.04 0.02 0.01 0.01 0.01 0.01 0.01 0.01 0.01 0.01 0.01 0.01 0.01 0.01 0.01 0.01 0.01 0.02 0.02 0.01 0.02 0.02 0.02 0.02 0.02 0.02 0.02 0.02 0.03 0.02 0.02 0.02 0.03 0.02 0.01 0.01 0.01 0.02 0.03
0.04 0.04 0.03 0.03 0.03 0.03 0.02 0.02 0.02 0.02 0.01 0.01 0.01 0.01 0.01 0.01 0.01 0.01 0.02 0.01 0.01 0.03 0.02 0.01 0.02 0.02 0.02 0.03 0.03 0.04 0.04 0.02 0.01 0.01 0.01 0.01 0.02 0.02 0.01 0.01 0.01 0.01 0.02
0.02 0.03 0.03 0.04 0.04 0.04 0.03 0.02 0.02 0.02 0.01 0.02 0.01 0.01 0.01 0.01 0.01 0.01 0.02 0.01 0.01 0.03 0.03 0.01 0.02 0.03 0.02 0.04 0.05 0.07 0.06 0.03 0.01 0.01 0.02 0.02 0.02 0.02 0.01 0.01 0.01 0.01 0.01
0.02 0.03 0.03 0.03 0.02 0.03 0.03 0.03 0.03 0.02 0.01 0.01 0.01 0.01 0.01 0.01 0.01 0.01 0.01 0.01 0.01 0.02 0.04 0.02 0.02 0.02 0.03 0.06 0.08 0.08 0.06 0.04 0.03 0.02 0.02 0.02 0.02 0.02 0.01 0.02 0.02 0.02 0.02
0.02 0.04 0.04 0.03 0.02 0.03 0.03 0.03 0.03 0.02 0.01 0.01 0.01 0.01 0.01 0.01 0.01 0.01 0.01 0.01 0.02 0.02 0.03 0.02 0.02 0.02 0.02 0.04 0.06 0.07 0.05 0.05 0.04 0.03 0.03 0.02 0.02 0.01 0.01 0.03 0.03 0.03 0.03
0.04 0.06 0.06 0.04 0.03 0.03 0.03 0.03 0.03 0.02 0.02 0.01 0.00 0.01 0.02 0.01 0.01 0.01 0.01 0.01 0.01 0.02 0.02 0.02 0.01 0.01 0.02 0.03 0.03 0.03 0.03 0.02 0.02 0.02 0.02 0.02 0.02 0.01 0.01 0.02 0.02 0.02 0.03
0.03 0.04 0.05 0.04 0.03 0.02 0.03 0.03 0.03 0.02 0.02 0.02 0.01 0.01 0.02 0.01 0.01 0.01 0.01 0.01 0.01 0.01 0.01 0.01 0.01 0.01 0.01 0.01 0.01 0.01 0.01 0.01 0.01 0.01 0.01 0.01 0.01 0.01 0.01 0.01 0.01 0.01 0.02
0.02 0.02 0.04 0.04 0.03 0.02 0.02 0.03 0.02 0.02 0.02 0.02 0.02 0.02 0.01 0.01 0.01 0.01 0.01 0.01 0.01 0.01 0.01 0.00 0.00 0.01 0.01 0.01 0.01 0.00 0.00 0.00 0.00 0.00 0.00 0.00 0.01 0.01 0.01 0.01 0.01 0.01 0.01
0.02 0.03 0.03 0.04 0.03 0.02 0.01 0.02 0.02 0.01 0.02 0.02 0.02 0.02 0.02 0.02 0.02 0.01 0.01 0.01 0.01 0.01 0.01 0.00 0.00 0.00 0.00 0.00 0.00 0.00 0.00 0.00 0.00 0.00 0.00 0.00 0.00 0.00 0.00 0.00 0.00 0.00 0.00
0.03 0.05 0.04 0.04 0.03 0.02 0.01 0.01 0.01 0.01 0.01 0.02 0.02 0.02 0.02 0.01 0.01 0.01 0.00 0.00 0.00 0.00 0.00 0.00 0.00 0.00 0.00 0.00 0.00 0.00 0.00 0.00 0.00 0.00 0.00 0.00 0.00 0.00 0.00 0.00 0.00 0.00 0.00
0.03 0.05 0.05 0.04 0.03 0.02 0.01 0.01 0.00 0.01 0.01 0.02 0.02 0.01 0.01 0.01 0.00 0.00 0.00 0.00 0.00 0.00 0.00 0.00 0.00 0.00 0.00 0.00 0.00 0.00 0.00 0.00 0.00 0.00 0.00 0.00 0.00 0.00 0.00 0.00 0.00 0.00 0.00
MSLP
1018.44 1018.94 1019.33 1019.56 1019.63 1019.54 1019.34 1019.07 1018.80 1018.55 1018.37 1018.26 1018.23 1018.25 1018.31 1018.38 1018.43 1018.48 1018.52 1018.57 1018.62 1018.71 1018.83 1018.98 1019.15 1019.33 1019.49 1019.61 1019.69 1019.71 1019.68 1019.60 1019.48 1019.33 1019.18 1019.02 1018.87 1018.73 1018.59 1018.47 1018.35 1018.23 1018.11
1018.79 1019.36 1019.80 1020.08 1020.18 1020.12 1019.93 1019.66 1019.38 1019.12 1018.92 1018.81 1018.76 1018.77 1018.82 1018.88 1018.93 1018.98 1019.02 1019.06 1019.12 1019.20 1019.30 1019.43 1019.56 1019.69 1019.78 1019.84 1019.85 1019.80 1019.71 1019.59 1019.45 1019.30 1019.16 1019.03 1018.92 1018.83 1018.75 1018.68 1018.61 1018.52 1018.43
1019.12 1019.75 1020.26 1020.60 1020.75 1020.72 1020.56 1020.31 1020.03 1019.77 1019.57 1019.45 1019.40 1019.41 1019.45 1019.50 1019.55 1019.60 1019.63 1019.67 1019.72 1019.78 1019.85 1019.94 1020.02 1020.09 1020.11 1020.10 1020.04 1019.93 1019.79 1019.63 1019.47 1019.33 1019.20 1019.11 1019.05 1019.01 1018.99 1018.97 1018.96 1018.92 1018.86
1019.42 1020.13 1020.71 1021.11 1021.31 1021.33 1021.20 1020.98 1020.72 1020.47 1020.28 1020.16 1020.10 1020.11 1020.14 1020.19 1020.23 1020.27 1020.29 1020.32 1020.34 1020.38 1020.42 1020.45 1020.48 1020.48 1020.45 1020.37 1020.25 1020.09 1019.92 1019.74 1019.57 1019.42 1019.32 1019.25 1019.22 1019.23 1019.25 1019.29 1019.32 1019.33 1019.31
1019.73 1020.50 1021.14 1021.60 1021.85 1021.92 1021.83 1021.64 1021.40 1021.17 1020.99 1020.87 1020.81 1020.80 1020.82 1020.86 1020.89 1020.91 1020.92 1020.92 1020.91 1020.91 1020.91 1020.90 1020.87 1020.81 1020.73 1020.60 1020.44 1020.25 1020.06 1019.87 1019.69 1019.56 1019.46 1019.40 1019.39 1019.41 1019.47 1019.53 1019.60 1019.66 1019.68
1020.09 1020.90 1021.58 1022.08 1022.37 1022.47 1022.42 1022.25 1022.03 1021.82 1021.64 1021.51 1021.45 1021.42 1021.43 1021.44 1021.45 1021.44 1021.42 1021.39 1021.35 1021.30 1021.25 1021.20 1021.12 1021.03 1020.90 1020.75 1020.57 1020.37 1020.17 1019.98 1019.81 1019.67 1019.57 1019.51 1019.49 1019.51 1019.57 1019.65 1019.74 1019.83 1019.89
1020.51 1021.34 1022.03 1022.54 1022.85 1022.97 1022.93 1022.78 1022.58 1022.37 1022.19 1022.05 1021.97 1021.92 1021.90 1021.88 1021.85 1021.81 1021.75 1021.68 1021.60 1021.51 1021.42 1021.32 1021.21 1021.08 1020.93 1020.77 1020.58 1020.39 1020.20 1020.01 1019.85 1019.70 1019.59 1019.51 1019.47 1019.47 1019.50 1019.58 1019.69 1019.81 1019.93
1021.03 1021.83 1022.49 1022.98 1023.27 1023.39 1023.35 1023.21 1023.01 1022.80 1022.61 1022.47 1022.36 1022.28 1022.22 1022.17 1022.10 1022.01 1021.91 1021.79 1021.67 1021.54 1021.41 1021.27 1021.13 1020.98 1020.83 1020.66 1020.48 1020.30 1020.12 1019.94 1019.78 1019.62 1019.49 1019.38 1019.30 1019.27 1019.28 1019.35 1019.48 1019.64 1019.82
1021.62 1022.36 1022.96 1023.39 1023.64 1023.72 1023.66 1023.52 1023.32 1023.11 1022.92 1022.76 1022.63 1022.53 1022.43 1022.34 1022.23 1022.10 1021.95 1021.79 1021.63 1021.46 1021.29 1021.12 1020.96 1020.80 1020.63 1020.46 1020.29 1020.12 1019.94 1019.77 1019.60 1019.43 1019.27 1019.13 1019.02 1018.96 1018.95 1019.02 1019.16 1019.38 1019.64
1022.24 1022.88 1023.38 1023.73 1023.91 1023.95 1023.87 1023.71 1023.52 1023.31 1023.13 1022.96 1022.82 1022.70 1022.58 1022.45 1022.31 1022.14 1021.96 1021.76 1021.56 1021.36 1021.17 1020.97 1020.79 1020.61 1020.43 1020.25 1020.07 1019.90 1019.72 1019.54 1019.35 1019.17 1018.99 1018.82 1018.69 1018.60 1018.59 1018.67 1018.85 1019.12 1019.48
1022.81 1023.33 1023.72 1023.97 1024.07 1024.06 1023.96 1023.80 1023.62 1023.44 1023.27 1023.12 1022.99 1022.86 1022.73 1022.58 1022.42 1022.23 1022.03 1021.81 1021.59 1021.36 1021.15 1020.93 1020.73 1020.52 1020.32 1020.13 1019.93 1019.73 1019.53 1019.33 1019.12 1018.91 1018.71 1018.53 1018.39 1018.30 1018.30 1018.41 1018.63 1018.97 1019.41
1023.26 1023.65 1023.92 1024.07 1024.11 1024.06 1023.95 1023.80 1023.65 1023.51 1023.38 1023.26 1023.16 1023.05 1022.93 1022.78 1022.62 1022.43 1022.22 1022.00 1021.77 1021.54 1021.31 1021.08 1020.85 1020.63 1020.40 1020.16 1019.93 1019.69 1019.45 1019.21 1018.98 1018.75 1018.53 1018.35 1018.21 1018.14 1018.16 1018.30 1018.57 1018.96 1019.47
1023.52 1023.79 1023.95 1024.02 1024.00 1023.93 1023.83 1023.73 1023.62 1023.54 1023.47 1023.41 1023.35 1023.28 1023.18 1023.06 1022.91 1022.74 1022.54 1022.34 1022.12 1021.90 1021.67 1021.44 1021.20 1020.94 1020.68 1020.40 1020.11 1019.83 1019.54 1019.26 1018.99 1018.73 1018.51 1018.33 1018.20 1018.15 1018.21 1018.38 1018.69 1019.12 1019.67
1023.56 1023.73 1023.81 1023.82 1023.78 1023.71 1023.64 1023.59 1023.55 1023.54 1023.54 1023.55 1023.55 1023.53 1023.47 1023.39 1023.27 1023.13 1022.97 1022.79 1022.60 1022.40 1022.19 1021.96 1021.71 1021.44 1021.14 1020.82 1020.48 1020.14 1019.80 1019.47 1019.17 1018.89 1018.66 1018.49 1018.38 1018.36 1018.44 1018.64 1018.96 1019.40 1019.95
1023.39 1023.49 1023.52 1023.51 1023.47 1023.43 1023.41 1023.42 1023.45 1023.52 1023.59 1023.67 1023.72 1023.75 1023.75 1023.70 1023.62 1023.52 1023.40 1023.26 1023.12 1022.95 1022.77 1022.56 1022.31 1022.03 1021.71 1021.35 1020.98 1020.59 1020.21 1019.84 1019.51 1019.22 1018.99 1018.82 1018.73 1018.73 1018.82 1019.03 1019.34 1019.75 1020.26
1023.08 1023.15 1023.16 1023.15 1023.13 1023.13 1023.17 1023.24 1023.34 1023.47 1023.61 1023.74 1023.84 1023.91 1023.94 1023.93 1023.89 1023.83 1023.75 1023.66 1023.55 1023.43 1023.28 1023.10 1022.88 1022.60 1022.28 1021.92 1021.52 1021.11 1020.70 1020.32 1019.97 1019.68 1019.44 1019.28 1019.20 1019.20 1019.29 1019.48 1019.75 1020.11 1020.54
1022.72 1022.79 1022.81 1022.82 1022.83 1022.88 1022.96 1023.08 1023.23 1023.41 1023.58 1023.74 1023.88 1023.97 1024.02 1024.04 1024.02 1023.99 1023.94 1023.89 1023.82 1023.74 1023.64 1023.50 1023.31 1023.06 1022.76 1022.41 1022.03 1021.62 1021.22 1020.84 1020.50 1020.21 1019.98 1019.82 1019.74 1019.73 1019.80 1019.94 1020.15 1020.43 1020.76
1022.41 1022.49 1022.54 1022.58 1022.63 1022.71 1022.82 1022.97 1023.15 1023.34 1023.52 1023.69 1023.82 1023.92 1023.97 1023.99 1023.99 1023.97 1023.94 1023.92 1023.89 1023.84 1023.78 1023.68 1023.54 1023.34 1023.09 1022.79 1022.44 1022.08 1021.71 1021.36 1021.04 1020.77 1020.55 1020.40 1020.31 1020.28 1020.31 1020.39 1020.52 1020.70 1020.93
1022.21 1022.33 1022.42 1022.49 1022.56 1022.66 1022.78 1022.93 1023.10 1023.27 1023.44 1023.59 1023.70 1023.77 1023.81 1023.83 1023.82 1023.80 1023.78 1023.77 1023.76 1023.75 1023.73 1023.68 1023.59 1023.45 1023.26 1023.03 1022.75 1022.45 1022.14 1021.85 1021.57 1021.33 1021.13 1020.98 1020.88 1020.82 1020.80 1020.81 1020.86 1020.95 1021.07
1022.17 1022.33 1022.44 1022.53 1022.62 1022.71 1022.82 1022.95 1023.09 1023.23 1023.36 1023.46 1023.54 1023.59 1023.61 1023.60 1023.58 1023.55 1023.53 1023.53 1023.53 1023.54 1023.55 1023.54 1023.51 1023.44 1023.32 1023.17 1022.98 1022.76 1022.53 1022.30 1022.08 1021.87 1021.70 1021.55 1021.42 1021.33 1021.26 1021.21 1021.19 1021.20 1021.23
1022.28 1022.46 1022.60 1022.69 1022.77 1022.85 1022.93 1023.02 1023.11 1023.20 1023.29 1023.35 1023.39 1023.41 1023.40 1023.38 1023.34 1023.31 1023.29 1023.28 1023.29 1023.32 1023.35 1023.38 1023.39 1023.38 1023.34 1023.27 1023.17 1023.04 1022.89 1022.72 1022.56 1022.39 1022.23 1022.08 1021.94 1021.81 1021.69 1021.59 1021.51 1021.46 1021.43
1022.48 1022.68 1022.82 1022.92 1022.98 1023.03 1023.07 1023.11 1023.15 1023.20 1023.23 1023.26 1023.27 1023.27 1023.25 1023.22 1023.18 1023.15 1023.13 1023.12 1023.14 1023.17 1023.22 1023.27 1023.33 1023.37 1023.39 1023.39 1023.36 1023.30 1023.22 1023.11 1022.99 1022.85 1022.70 1022.54 1022.38 1022.23 1022.08 1021.94 1021.82 1021.73 1021.68
1022.72 1022.93 1023.07 1023.15 1023.19 1023.20 1023.20 1023.20 1023.20 1023.20 1023.21 1023.21 1023.21 1023.20 1023.17 1023.15 1023.12 1023.10 1023.09 1023.09 1023.11 1023.15 1023.21 1023.29 1023.37 1023.44 1023.51 1023.55 1023.57 1023.56 1023.52 1023.45 1023.35 1023.22 1023.07 1022.91 1022.73 1022.55 1022.38 1022.23 1022.09 1021.99 1021.93
1022.95 1023.15 1023.27 1023.34 1023.36 1023.34 1023.31 1023.28 1023.24 1023.22 1023.20 1023.19 1023.18 1023.18 1023.17 1023.17 1023.16 1023.16 1023.17 1023.18 1023.22 1023.27 1023.34 1023.42 1023.51 1023.60 1023.68 1023.74 1023.78 1023.79 1023.77 1023.70 1023.60 1023.47 1023.31 1023.13 1022.94 1022.75 1022.57 1022.41 1022.29 1022.20 1022.15
1023.13 1023.31 1023.42 1023.47 1023.47 1023.44 1023.39 1023.33 1023.28 1023.23 1023.21 1023.19 1023.19 1023.20 1023.21 1023.23 1023.25 1023.28 1023.31 1023.35 1023.40 1023.46 1023.53 1023.62 1023.70 1023.79 1023.87 1023.92 1023.95 1023.95 1023.91 1023.83 1023.71 1023.55 1023.37 1023.18 1022.98 1022.79 1022.62 1022.48 1022.38 1022.32 1022.30
1023.23 1023.40 1023.51 1023.55 1023.55 1023.51 1023.45 1023.38 1023.31 1023.26 1023.22 1023.20 1023.21 1023.22 1023.25 1023.29 1023.34 1023.39 1023.45 1023.51 1023.58 1023.65 1023.73 1023.80 1023.88 1023.94 1023.99 1024.02 1024.02 1023.98 1023.90 1023.78 1023.63 1023.45 1023.25 1023.04 1022.85 1022.67 1022.52 1022.41 1022.35 1022.33 1022.35
Thickness
5693 5691 5688 5686 5683 5681 5679 5677 5676 5674 5675 5675 5675 5674 5674 5674 5674 5673 5671 5672 5672 5674 5675 5676 5676 5677 5679 5679 5680 5681 5683 5683 5684 5684 5683 5683 5683 5682 5680 5680 5680 5681 5680
5688 5684 5681 5679 5677 5674 5672 5670 5669 5668 5669 5668 5668 5668 5668 5667 5666 5665 5664 5664 5665 5666 5668 5668 5670 5670 5671 5671 5672 5673 5675 5676 5677 5677 5676 5675 5674 5673 5673 5672 5671 5671 5672
5684 5678 5675 5672 5670 5666 5664 5664 5662 5662 5662 5662 5664 5663 5662 5661 5660 5658 5658 5657 5657 5658 5658 5659 5661 5662 5664 5665 5664 5665 5666 5668 5670 5671 5670 5669 5669 5666 5664 5663 5662 5662 5663
5680 5674 5670 5666 5663 5659 5658 5657 5655 5655 5655 5656 5657 5657 5655 5652 5650 5650 5649 5648 5648 5649 5650 5651 5652 5653 5656 5655 5657 5658 5659 5659 5662 5663 5664 5665 5665 5661 5656 5654 5653 5653 5653
5675 5668 5663 5659 5655 5653 5651 5650 5648 5648 5648 5648 5648 5648 5647 5644 5643 5642 5640 5641 5640 5640 5641 5643 5644 5645 5647 5647 5647 5648 5650 5652 5653 5654 5655 5656 5656 5657 5654 5649 5645 5644 5642
5669 5662 5657 5652 5648 5646 5645 5642 5641 5639 5639 5639 5638 5637 5636 5634 5632 5631 5631 5632 5632 5632 5632 5634 5635 5637 5637 5637 5638 5640 5642 5644 5644 5645 5647 5648 5649 5649 5649 5645 5640 5636 5633
5663 5655 5649 5645 5641 5639 5637 5635 5632 5630 5629 5628 5628 5626 5626 5624 5622 5622 5622 5623 5624 5624 5622 5624 5625 5626 5626 5628 5629 5631 5633 5634 5635 5637 5638 5640 5641 5641 5641 5639 5634 5629 5625
5657 5650 5643 5638 5635 5631 5629 5626 5624 5621 5620 5618 5617 5616 5615 5615 5614 5612 5613 5613 5613 5613 5612 5613 5614 5615 5617 5619 5621 5623 5624 5625 5627 5628 5629 5631 5632 5633 5634 5633 5629 5624 5619
5649 5643 5637 5632 5628 5624 5620 5618 5615 5612 5610 5608 5607 5605 5604 5603 5602 5602 5602 5603 5602 5603 5603 5603 5604 5605 5607 5609 5612 5614 5615 5616 5619 5620 5622 5624 5625 5626 5627 5626 5625 5623 5619
5642 5635 5629 5625 5620 5616 5612 5609 5605 5603 5601 5599 5598 5595 5593 5592 5592 5592 5590 5590 5591 5591 5593 5594 5595 5596 5598 5599 5602 5605 5606 5607 5609 5610 5611 5614 5616 5617 5618 5618 5618 5618 5617
5635 5628 5622 5617 5612 5608 5604 5601 5597 5594 5592 5590 5587 5585 5584 5583 5582 5581 5580 5580 5580 5581 5582 5583 5585 5586 5587 5589 5592 5594 5595 5598 5599 5601 5603 5604 5605 5608 5609 5610 5611 5610 5610
5629 5621 5615 5609 5604 5600 5596 5592 5589 5586 5583 5581 5579 5576 5575 5574 5572 5570 5570 5570 5570 5572 5572 5573 5575 5576 5578 5580 5582 5584 5586 5588 5590 5591 5593 5594 5596 5597 5599 5601 5602 5601 5600
5621 5614 5608 5603 5598 5593 5589 5585 5581 5578 5576 5573 5571 5568 5566 5564 5562 5561 5560 5561 5562 5562 5563 5564 5566 5567 5569 5571 5573 5574 5576 5578 5580 5582 5583 5585 5586 5587 5589 5591 5592 5592 5591
5614 5608 5602 5597 5591 5586 5582 5578 5573 5570 5568 5566 5563 5559 5557 5555 5554 5553 5552 5553 5554 5554 5556 5557 5558 5559 5561 5563 5565 5567 5568 5570 5571 5572 5573 5575 5576 5578 5580 5582 5583 5583 5582
5608 5603 5597 5591 5585 5580 5575 5571 5566 5563 5560 5558 5556 5553 5550 5549 5548 5547 5546 5546 5546 5548 5549 5549 5550 5551 5552 5553 5556 5559 5561 5562 5563 5564 5564 5564 5565 5566 5570 5574 5575 5576 5577
5603 5598 5592 5585 5580 5575 5570 5566 5561 5558 5555 5553 5550 5547 5545 5543 5542 5541 5540 5540 5540 5541 5542 5543 5543 5543 5543 5541 5545 5550 5553 5555 5556 5557 5557 5558 5558 5558 5560 5562 5564 5566 5568
5600 5593 5587 5581 5576 5571 5566 5561 5557 5554 5551 5548 5546 5543 5542 5539 5537 5537 5536 5535 5534 5535 5536 5537 5537 5536 5533 5534 5537 5541 5546 5548 5548 5550 5552 5554 5552 5554 5555 5554 5555 5557 5557
5597 5590 5583 5577 5571 5566 5561 5556 5553 5550 5547 5544 5542 5540 5538 5536 5534 5533 5531 5530 5530 5530 5530 5530 5531 5530 5528 5528 5531 5534 5539 5541 5541 5543 5545 5546 5546 5547 5549 5551 5552 5552 5552
5594 5586 5579 5573 5567 5562 5557 5553 5550 5547 5544 5542 5539 5537 5535 5533 5531 5529 5527 5526 5526 5526 5526 5526 5526 5526 5525 5524 5527 5529 5535 5536 5537 5538 5537 5540 5540 5538 5540 5546 5547 5547 5547
5588 5580 5574 5568 5562 5557 5554 5550 5547 5544 5542 5539 5537 5534 5532 5530 5528 5526 5524 5524 5523 5523 5524 5523 5523 5523 5522 5520 5523 5525 5534 5534 5535 5534 5533 5530 5532 5533 5536 5541 5543 5543 5543
5581 5575 5569 5563 5558 5554 5550 5547 5544 5542 5539 5536 5534 5531 5529 5527 5525 5524 5523 5522 5523 5523 5522 5522 5521 5521 5519 5519 5520 5521 5528 5531 5533 5534 5533 5529 5527 5529 5531 5534 5537 5537 5539
5576 5570 5565 5559 5554 5550 5547 5544 5541 5539 5536 5534 5532 5529 5527 5527 5525 5523 5522 5522 5522 5523 5523 5522 5522 5522 5520 5518 5518 5519 5521 5524 5529 5531 5531 5528 5526 5527 5529 5531 5532 5534 5536
5573 5568 5562 5557 5552 5549 5546 5543 5540 5537 5535 5533 5531 5529 5527 5526 5525 5524 5524 5525 5525 5528 5529 5528 5527 5526 5525 5521 5518 5519 5521 5522 5526 5527 5524 5524 5526 5527 5530 5530 5532 5535 5540
5571 5565 5560 5556 5551 5548 5545 5542 5539 5537 5535 5533 5531 5530 5529 5527 5526 5526 5528 5528 5529 5530 5530 5530 5530 5528 5528 5527 5526 5527 5526 5524 5527 5528 5527 5526 5528 5530 5530 5533 5537 5540 5542
5570 5565 5561 5556 5552 5548 5544 5542 5539 5537 5536 5534 5533 5532 5531 5531 5528 5528 5527 5528 5526 5526 5527 5531 5531 5531 5530 5524 5520 5523 5528 5529 5529 5529 5534 5537 5539 5540 5541 5542 5543 5544 5545
5570 5566 5561 5557 5553 5549 5545 5542 5540 5539 5537 5535 5535 5535 5534 5533 5534 5533 5531 5525 5525 5524 5523 5523 5524 5526 5524 5522 5523 5523 5524 5525 5526 5530 5538 5541 5543 5544 5546 5547 5548 5548 5549